Weather History for KFIG - October, 2012

Change the Weather History Date:

Monday, October 8, 2012

  Actual Average (KDUJ) Record (KDUJ)
Temperature  
Mean Temperature 42 °F 51 °F  
Max Temperature 48 °F 61 °F 85 °F (2007)
Min Temperature 35 °F 42 °F 26 °F (2001)
Degree Days  
Heating Degree Days 24 14  
Month to date heating degree days 100  
Since 1 July heating degree days 346  
Cooling Degree Days 0 0  
Month to date cooling degree days 0  
Year to date cooling degree days 360  
Moisture  
Dew Point 35 °F    
Average Humidity 81    
Maximum Humidity 96    
Minimum Humidity 50    
Precipitation  
Precipitation 0.00 in 0.10 in - ()
Month to date precipitation 0.84  
Sea Level Pressure  
Sea Level Pressure 30.24 in    
Wind  
Wind Speed 2 mph (SW)    
Max Wind Speed 8 mph    
Max Gust Speed -    
Visibility 10 miles    
Events      
T = Trace of Precipitation, MM = Missing Value Source: NWS Daily Summary

Daily Weather History Graph

Daily Weather History Graph

Search for Another Location

Airport or City:

Trip Planner

Search our weather history database for the weather conditions in past years. The results will help you decide how hot, cold, wet, or windy it might be!

Date:

Astronomy

Oct. 08, 2012 Rise Set
Actual Time 7:18 AM EDT 6:43 PM EDT
Civil Twilight 6:50 AM EDT 7:10 PM EDT
Nautical Twilight 6:18 AM EDT 7:42 PM EDT
Astronomical Twilight 5:46 AM EDT 8:14 PM EDT
Moon No Moon Rise 2:34 PM EDT (10/8)
Length of Visible Light 12h 20m
Length of Day
11h 25m
Waning Gibbous, 46% of the Moon is Illuminated
Oct 8
Waning Gibbous
Oct 15
New
Oct 21
First Quarter
Oct 29
Full
Nov 6
Last Quarter

Hourly Weather History & Observations

Time (EDT) Temp. Windchill Dew Point Humidity Pressure Visibility Wind Dir Wind Speed Gust Speed Precip Events Conditions
12:33 AM 37.4 °F - 33.8 °F 87% 30.17 in 10.0 mi Calm Calm - N/A   Mostly Cloudy
12:54 AM 37.0 °F - 34.0 °F 89% 30.19 in 10.0 mi Calm Calm - N/A   Mostly Cloudy
1:23 AM 35.6 °F - 33.8 °F 93% 30.16 in 10.0 mi Calm Calm - N/A   Scattered Clouds
1:54 AM 36.0 °F 33.3 °F 33.1 °F 89% 30.20 in 10.0 mi WSW 3.5 mph - N/A   Partly Cloudy
2:08 AM 35.6 °F 31.7 °F 33.8 °F 93% 30.18 in 10.0 mi SW 4.6 mph - N/A   Mostly Cloudy
2:39 AM 35.6 °F - 33.8 °F 93% 30.19 in 10.0 mi Calm Calm - N/A   Mostly Cloudy
2:54 AM 35.1 °F 30.1 °F 34.0 °F 96% 30.22 in 10.0 mi West 5.8 mph - N/A   Mostly Cloudy
3:54 AM 37.0 °F 34.5 °F 34.0 °F 89% 30.23 in 10.0 mi Variable 3.5 mph - N/A   Overcast
4:22 AM 37.4 °F 34.9 °F 33.8 °F 87% 30.20 in 10.0 mi SSW 3.5 mph - N/A   Overcast
4:54 AM 37.0 °F 34.5 °F 36.0 °F 96% 30.25 in 10.0 mi SW 3.5 mph - N/A   Overcast
5:36 AM 37.4 °F - 35.6 °F 93% 30.21 in 10.0 mi Calm Calm - N/A   Overcast
5:54 AM 37.9 °F - 36.0 °F 93% 30.24 in 10.0 mi Calm Calm - N/A   Overcast
6:54 AM 37.0 °F - 35.1 °F 93% 30.25 in 10.0 mi Calm Calm - N/A   Mostly Cloudy
7:54 AM 37.9 °F - 36.0 °F 93% 30.28 in 10.0 mi Calm Calm - N/A   Overcast
8:40 AM 39.2 °F 37.0 °F 35.6 °F 87% 30.25 in 10.0 mi SW 3.5 mph - N/A   Overcast
8:54 AM 39.0 °F - 36.0 °F 89% 30.28 in 10.0 mi Calm Calm - N/A   Overcast
9:54 AM 41.0 °F 38.0 °F 36.0 °F 82% 30.29 in 10.0 mi South 4.6 mph - N/A   Overcast
10:54 AM 42.1 °F - 36.0 °F 79% 30.29 in 10.0 mi Calm Calm - N/A   Overcast
11:23 AM 42.8 °F 41.1 °F 37.4 °F 81% 30.25 in 10.0 mi Variable 3.5 mph - N/A   Mostly Cloudy
11:54 AM 44.1 °F 42.5 °F 37.0 °F 76% 30.29 in 10.0 mi Variable 3.5 mph - N/A   Mostly Cloudy
12:10 PM 44.6 °F - 37.4 °F 76% 30.25 in 10.0 mi Calm Calm - N/A   Scattered Clouds
12:54 PM 45.0 °F 43.5 °F 36.0 °F 71% 30.28 in 10.0 mi West 3.5 mph - N/A   Clear
1:54 PM 46.0 °F - 34.0 °F 63% 30.27 in 10.0 mi Calm Calm - N/A   Clear
2:54 PM 46.9 °F - 35.1 °F 63% 30.26 in 10.0 mi Variable 3.5 mph - N/A   Scattered Clouds
3:54 PM 48.0 °F - 35.1 °F 61% 30.25 in 10.0 mi SW 4.6 mph - N/A   Clear
4:54 PM 48.0 °F - 30.0 °F 50% 30.24 in 10.0 mi South 8.1 mph - N/A   Partly Cloudy
5:54 PM 46.9 °F - 34.0 °F 61% 30.24 in 10.0 mi Variable 6.9 mph - N/A   Mostly Cloudy
6:54 PM 46.0 °F 44.8 °F 36.0 °F 68% 30.24 in 10.0 mi Variable 3.5 mph - N/A   Overcast
7:54 PM 45.0 °F - 36.0 °F 71% 30.24 in 10.0 mi Calm Calm - N/A   Overcast
8:54 PM 43.0 °F - 37.0 °F 80% 30.25 in 10.0 mi Calm Calm - N/A   Mostly Cloudy
9:54 PM 43.0 °F - 37.0 °F 80% 30.25 in 10.0 mi Calm Calm - N/A   Overcast
10:54 PM 43.0 °F - 36.0 °F 76% 30.25 in 10.0 mi Calm Calm - N/A   Overcast
11:54 PM 42.1 °F - 36.0 °F 79% 30.24 in 10.0 mi Calm Calm - N/A   Overcast